Weather History for Clarion, IA

Change the Weather History Date:

Thursday, January 17, 2013

  Actual Average Record
Temperature  
Mean Temperature 20 °F -  
Max Temperature 33 °F 23 °F 50 °F (1990)
Min Temperature 8 °F 6 °F -22 °F (1977)
Degree Days  
Heating Degree Days 44    
Moisture  
Dew Point 10 °F    
Average Humidity 67    
Maximum Humidity 86    
Minimum Humidity 46    
Precipitation  
Precipitation 0.00 in - - ()
Sea Level Pressure  
Sea Level Pressure 30.35 in    
Wind  
Wind Speed 9 mph (NW)    
Max Wind Speed 14 mph    
Max Gust Speed 20 mph    
Visibility 10 miles    
Events      
Averages and records for this station are not official NWS values.
T = Trace of Precipitation, MM = Missing Value Source: NWS Daily Summary

Daily Weather History Graph

Daily Weather History Graph

Search for Another Location

Airport:

Trip Planner

Search our weather history database for the weather conditions in past years. The results will help you decide how hot, cold, wet, or windy it might be!

Date:

Astronomy

Jan. 17, 2013 Rise Set
Actual Time 7:41 AM CST 5:09 PM CST
Civil Twilight 7:10 AM CST 5:40 PM CST
Nautical Twilight 6:35 AM CST 6:15 PM CST
Astronomical Twilight 6:01 AM CST 6:49 PM CST
Moon 10:38 AM CST (1/17) No Moon Set
Length of Visible Light 10h 30m
Length of Day
9h 27m
Waxing Crescent, 38% of the Moon is Illuminated
Jan 17
Waxing Crescent
Jan 18
First Quarter
Jan 26
Full
Feb 3
Last Quarter
Feb 10
New

Hourly Weather History & Observations

Time (CST) Temp. Windchill Dew Point Humidity Pressure Visibility Wind Dir Wind Speed Gust Speed Precip Events Conditions
12:15 AM 19.4 °F 6.6 °F 14.0 °F 80% 30.22 in 10.0 mi NNW 12.7 mph 19.6 mph N/A   Clear
12:35 AM 17.6 °F 6.4 °F 14.0 °F 86% 30.23 in 10.0 mi NNW 9.2 mph - N/A   Clear
12:55 AM 17.6 °F 4.3 °F 12.2 °F 79% 30.24 in 10.0 mi NNW 12.7 mph - N/A   Clear
1:15 AM 17.6 °F 5.0 °F 10.4 °F 73% 30.26 in 10.0 mi NNW 11.5 mph 17.3 mph N/A   Clear
1:35 AM 15.8 °F 4.2 °F 8.6 °F 73% 30.27 in 10.0 mi NNW 9.2 mph 18.4 mph N/A   Clear
1:55 AM 15.8 °F 2.1 °F 8.6 °F 73% 30.27 in 10.0 mi NNW 12.7 mph 18.4 mph N/A   Clear
2:35 AM 14.0 °F 0.5 °F 6.8 °F 73% 30.29 in 10.0 mi NNW 11.5 mph - N/A   Clear
2:55 AM 14.0 °F 0.5 °F 6.8 °F 73% 30.29 in 10.0 mi NNW 11.5 mph - N/A   Clear
3:35 AM 12.2 °F 0.7 °F 5.0 °F 73% 30.30 in 10.0 mi North 8.1 mph 13.8 mph N/A   Clear
3:55 AM 12.2 °F -1.0 °F 5.0 °F 73% 30.32 in 10.0 mi NNW 10.4 mph - N/A   Clear
4:15 AM 10.4 °F -5.4 °F 3.2 °F 73% 30.33 in 10.0 mi NNW 13.8 mph - N/A   Clear
4:35 AM 10.4 °F -2.4 °F 3.2 °F 73% 30.33 in 10.0 mi NNW 9.2 mph - N/A   Clear
4:55 AM 10.4 °F -2.4 °F 3.2 °F 73% 30.33 in 10.0 mi NNW 9.2 mph - N/A   Clear
5:15 AM 10.4 °F -3.3 °F 1.4 °F 67% 30.34 in 10.0 mi NNW 10.4 mph - N/A   Clear
5:35 AM 10.4 °F 0.8 °F 3.2 °F 73% 30.34 in 10.0 mi WNW 5.8 mph - N/A   Clear
6:15 AM 10.4 °F -2.4 °F 1.4 °F 67% 30.37 in 10.0 mi NW 9.2 mph - N/A   Clear
6:35 AM 8.6 °F -4.7 °F 1.4 °F 73% 30.37 in 10.0 mi NW 9.2 mph - N/A   Scattered Clouds
6:55 AM 8.6 °F -4.7 °F 1.4 °F 73% 30.37 in 10.0 mi NW 9.2 mph - N/A   Mostly Cloudy
7:15 AM 8.6 °F -3.7 °F 1.4 °F 73% 30.37 in 10.0 mi WNW 8.1 mph - N/A   Partly Cloudy
7:35 AM 10.4 °F 0.8 °F 1.4 °F 67% 30.38 in 10.0 mi WNW 5.8 mph - N/A   Mostly Cloudy
7:55 AM 10.4 °F 0.8 °F 1.4 °F 67% 30.38 in 10.0 mi West 5.8 mph - N/A   Overcast
8:15 AM 10.4 °F -0.4 °F 1.4 °F 67% 30.39 in 10.0 mi NNW 6.9 mph - N/A   Overcast
8:35 AM 12.2 °F 0.7 °F 1.4 °F 62% 30.40 in 10.0 mi NNW 8.1 mph - N/A   Overcast
8:55 AM 12.2 °F 0.7 °F 1.4 °F 62% 30.41 in 10.0 mi NNW 8.1 mph - N/A   Overcast
9:15 AM 12.2 °F 2.9 °F 1.4 °F 62% 30.41 in 10.0 mi NNW 5.8 mph - N/A   Overcast
9:35 AM 14.0 °F 5.1 °F 1.4 °F 57% 30.41 in 10.0 mi NNW 5.8 mph - N/A   Overcast
9:55 AM 14.0 °F - 3.2 °F 62% 30.41 in 10.0 mi Calm Calm - N/A   Overcast
10:15 AM 15.8 °F 10.2 °F 3.2 °F 58% 30.41 in 10.0 mi WNW 3.5 mph - N/A   Overcast
10:35 AM 17.6 °F 8.2 °F 3.2 °F 53% 30.41 in 10.0 mi West 6.9 mph - N/A   Overcast
10:55 AM 19.4 °F 10.4 °F 3.2 °F 49% 30.42 in 10.0 mi SW 6.9 mph - N/A   Overcast
11:15 AM 19.4 °F 7.9 °F 5.0 °F 54% 30.41 in 10.0 mi WSW 10.4 mph - N/A   Overcast
11:35 AM 21.2 °F 10.1 °F 5.0 °F 50% 30.40 in 10.0 mi SW 10.4 mph - N/A   Overcast
11:55 AM 23.0 °F 13.9 °F 6.8 °F 50% 30.38 in 10.0 mi SW 8.1 mph 15.0 mph N/A   Scattered Clouds
12:15 PM 24.8 °F 14.0 °F 6.8 °F 46% 30.38 in 10.0 mi WSW 11.5 mph - N/A   Scattered Clouds
12:35 PM 26.6 °F 15.7 °F 8.6 °F 47% 30.38 in 10.0 mi WSW 12.7 mph - N/A   Mostly Cloudy
12:55 PM 28.4 °F 18.5 °F 10.4 °F 47% 30.37 in 10.0 mi WSW 11.5 mph - N/A   Scattered Clouds
1:15 PM 28.4 °F 19.7 °F 10.4 °F 47% 30.36 in 10.0 mi West 9.2 mph 15.0 mph N/A   Clear
1:35 PM 30.2 °F 20.2 °F 14.0 °F 51% 30.37 in 10.0 mi WNW 12.7 mph - N/A   Partly Cloudy
1:55 PM 30.2 °F 20.2 °F 15.8 °F 55% 30.37 in 10.0 mi WNW 12.7 mph - N/A   Mostly Cloudy
2:15 PM 32.0 °F 24.2 °F 17.6 °F 55% 30.36 in 10.0 mi WNW 9.2 mph 17.3 mph N/A   Overcast
2:35 PM 32.0 °F 23.0 °F 17.6 °F 55% 30.35 in 10.0 mi NW 11.5 mph - N/A   Mostly Cloudy
2:55 PM 32.0 °F 23.0 °F 19.4 °F 60% 30.35 in 10.0 mi NW 11.5 mph 17.3 mph N/A   Partly Cloudy
3:15 PM 32.0 °F 23.6 °F 19.4 °F 60% 30.36 in 10.0 mi WNW 10.4 mph - N/A   Clear
3:35 PM 32.0 °F 24.8 °F 19.4 °F 60% 30.35 in 10.0 mi WNW 8.1 mph - N/A   Clear
3:55 PM 33.8 °F 25.8 °F 21.2 °F 60% 30.36 in 10.0 mi NW 10.4 mph - N/A   Partly Cloudy
4:55 PM 30.2 °F 25.4 °F 23.0 °F 75% 30.37 in 10.0 mi North 4.6 mph - N/A   Clear
5:35 PM 28.4 °F 22.2 °F 21.2 °F 74% 30.38 in 10.0 mi North 5.8 mph - N/A   Clear
7:55 PM 23.0 °F - 19.4 °F 86% 30.36 in 10.0 mi Calm Calm - N/A   Clear
8:15 PM 24.8 °F 19.1 °F 19.4 °F 80% 30.36 in 10.0 mi East 4.6 mph - N/A   Scattered Clouds
8:55 PM 24.8 °F 19.1 °F 21.2 °F 86% 30.35 in 10.0 mi East 4.6 mph - N/A   Overcast
9:15 PM 24.8 °F - 21.2 °F 86% 30.35 in 10.0 mi Calm Calm - N/A   Overcast
9:35 PM 24.8 °F 20.5 °F 21.2 °F 86% 30.35 in 10.0 mi SE 3.5 mph - N/A   Overcast
9:55 PM 24.8 °F 17.9 °F 21.2 °F 86% 30.34 in 10.0 mi SE 5.8 mph - N/A   Overcast
11:15 PM 26.6 °F 17.5 °F 21.2 °F 80% 30.30 in 10.0 mi SSE 9.2 mph - N/A   Overcast
11:35 PM 26.6 °F 15.7 °F 21.2 °F 80% 30.28 in 10.0 mi SSE 12.7 mph - N/A   Overcast
11:55 PM 26.6 °F 16.2 °F 21.2 °F 80% 30.27 in 10.0 mi SE 11.5 mph - N/A   Overcast